Location: Saratoga Springs
(43.0831°N, 73.7850°W)
Time: 21:39:02
(UTC-04:00)

Vanguard 1 Rocket - Pass Details

Date: 17 April 2024
Orbit: 651 x 4220 km, 34.3° (Epoch: 20 May)

Event Time Altitude Azimuth Distance (km) Brightness Sun altitude
Rises 20:36:18 0° 240° (WSW) 3,257 10.8 -10.3°
Reaches altitude 10° 20:38:26 10° 232° (SW) 2,519 10.0 -10.6°
Maximum altitude 20:43:54 41° 163° (SSE) 1,681 8.4 -11.5°
Enters shadow 20:52:06 13° 100° (E) 3,930 10.0 -12.8°
Drops below altitude 10° 20:53:19 10° 98° (E) 4,337 - -13.0°
Sets 20:58:14 0° 93° (E) 5,953 - -13.8°
